Temp
29 29 28 28 28 29 29 29 29 29 28 28 26 25 25 24 23 25 25 24 24 24 24 24 25 25 26 26 25 24 26 27 26 27 27 27 27 26 27 26 26 26 25 25 26 26 25 25 24 24 24 23 23 23 23 23 23 23 23 23 24 24 24 24 24 24 23 23 23 23 24 24 24 24 24 23 23 24 24 24 24 24 24 24 24 25
29 27 28 29 29 29 29 29 29 29 29 29 27 25 24 24 24 25 25 24 25 25 24 24 24 25 25 25 24 24 25 26 26 27 27 26 26 26 26 26 26 26 25 24 25 25 25 25 24 24 24 24 24 23 23 23 23 23 23 24 24 24 24 24 24 24 24 24 24 24 24 24 24 24 24 24 24 24 24 24 24 24 24 24 24 25
27 27 29 30 29 28 29 29 29 29 29 28 27 25 23 24 25 24 24 24 24 25 24 23 23 24 25 25 25 24 24 25 25 26 27 27 26 26 26 25 25 25 25 24 25 25 25 25 25 24 24 24 24 24 24 24 24 24 24 24 24 24 24 24 24 24 24 24 24 24 25 25 25 25 24 24 25 24 24 24 24 24 24 24 24 24
25 28 31 31 28 29 30 30 29 29 28 28 26 24 23 24 25 24 24 24 24 25 24 23 23 24 25 25 25 24 24 24 25 25 25 26 26 26 26 25 25 25 25 25 25 25 26 25 25 25 24 24 24 24 24 24 24 24 24 24 24 24 24 25 24 24 24 24 24 25 25 25 25 25 25 25 25 24 24 24 24 24 24 24 24 24
27 30 31 30 29 29 29 30 30 28 27 27 26 25 24 25 25 24 24 24 24 24 24 24 22 23 25 25 25 24 23 24 24 25 25 25 26 26 25 25 25 25 25 25 25 25 26 25 25 25 25 24 24 24 24 24 24 24 24 25 25 25 25 25 25 25 25 24 25 25 25 24 24 25 25 24 24 24 24 24 24 24 24 24 24 24
29 30 30 30 30 29 29 30 30 29 27 25 27 27 27 27 26 25 24 24 23 22 24 24 21 22 24 24 25 25 23 23 24 24 25 25 25 25 25 25 25 25 25 25 25 25 26 25 25 25 25 25 24 24 25 24 24 24 24 25 25 25 25 25 25 25 25 25 25 25 24 24 24 24 24 24 24 24 24 24 24 24 24 24 24 24
29 30 29 30 30 29 29 30 31 31 27 24 27 29 28 27 26 24 24 24 22 21 24 25 22 22 23 24 25 24 24 24 24 24 24 25 25 25 25 25 25 25 25 25 26 26 26 25 25 25 25 25 25 25 25 25 25 25 25 25 25 25 25 25 25 25 25 25 25 25 25 25 25 24 24 25 25 25 24 24 24 24 24 24 24 24
31 31 30 30 30 30 30 30 31 32 28 26 29 29 26 27 26 24 25 24 23 23 23 24 23 22 22 24 23 22 24 24 24 24 24 24 24 24 25 25 26 25 25 26 26 26 26 26 25 25 25 25 25 25 25 25 25 25 25 25 25 25 25 25 25 25 25 26 25 25 25 25 25 25 25 25 25 25 24 24 24 24 24 24 24 24
31 32 31 31 31 30 31 31 31 32 30 29 29 27 26 27 26 25 25 23 23 23 21 22 23 22 21 23 22 22 23 24 24 24 24 23 23 24 25 25 26 26 26 26 26 26 26 26 26 25 25 25 25 25 25 25 25 25 25 25 25 25 26 26 25 25 26 26 25 25 25 25 25 25 25 25 25 25 25 24 24 24 24 24 24 24
31 32 32 32 31 31 32 32 31 32 32 30 28 27 26 26 25 25 24 23 23 23 21 21 22 21 21 23 22 22 23 24 25 24 24 24 23 24 24 25 26 26 26 26 26 26 26 26 26 26 26 26 26 26 25 25 25 25 25 25 25 26 26 26 26 26 26 26 26 25 25 25 25 25 25 25 25 25 25 24 24 24 24 24 24 24
31 31 31 32 33 32 33 32 31 31 31 30 28 27 26 25 25 25 24 24 22 21 22 22 22 22 22 22 23 23 24 25 25 25 24 24 24 24 24 25 26 26 26 26 26 26 26 26 26 26 26 26 26 26 25 25 25 25 25 25 25 26 26 26 25 26 26 26 25 25 26 26 26 26 25 25 25 25 24 24 24 24 24 24 24 24
30 31 31 32 32 32 33 32 30 30 30 31 30 27 24 23 24 23 23 23 22 21 22 22 22 22 21 22 24 25 26 25 25 26 25 25 24 24 24 25 25 26 26 26 26 26 26 26 26 26 26 26 26 25 25 25 25 25 25 25 25 26 26 25 25 25 25 25 25 26 26 26 26 26 25 25 25 25 24 24 24 24 24 24 24 24
30 31 31 32 32 32 33 31 30 30 30 31 30 25 23 22 21 21 21 22 21 21 22 22 22 22 21 24 26 26 26 25 24 25 26 25 25 24 24 24 25 26 26 26 26 26 26 26 25 25 26 26 25 25 25 25 25 25 25 25 25 25 26 25 25 25 25 25 25 26 26 26 25 26 25 25 25 25 25 25 25 24 24 24 24 24
26 29 31 32 32 32 32 30 28 28 30 30 28 25 23 21 21 21 21 21 21 21 22 23 23 22 22 25 27 26 26 25 24 24 25 25 25 25 24 24 25 26 26 26 26 26 26 26 25 26 26 25 25 25 25 25 25 25 25 25 25 25 25 25 25 25 25 25 25 26 26 26 25 25 26 25 25 25 25 25 25 25 25 25 25 25
23 25 29 31 31 31 33 32 29 29 29 29 29 27 24 22 22 21 21 21 21 21 22 23 23 22 22 24 26 26 25 25 24 24 24 25 25 25 24 25 25 26 26 26 26 26 26 26 26 26 26 25 26 26 25 25 25 25 24 24 25 25 25 25 25 25 25 25 25 25 25 25 25 25 25 25 26 25 25 25 25 25 25 25 25 25
22 23 29 31 31 32 32 32 31 30 28 27 28 27 24 24 24 22 21 22 21 21 22 22 22 23 24 25 26 26 26 26 26 25 25 25 25 25 24 25 25 25 26 26 26 26 26 26 26 26 26 26 26 26 25 25 25 25 25 25 25 25 25 25 25 25 25 25 25 25 25 25 25 25 25 25 26 26 26 26 26 26 25 25 25 25
22 24 30 31 31 32 32 31 31 29 27 27 26 25 25 27 26 23 21 22 21 21 22 21 22 23 24 25 26 26 26 27 26 26 25 25 25 25 24 25 25 25 26 26 26 26 26 26 26 26 26 26 26 26 25 25 25 25 25 25 25 25 25 25 25 25 25 25 25 25 25 25 25 25 25 26 26 26 26 26 26 26 25 25 25 25
24 24 29 31 30 30 30 30 31 29 29 28 25 25 26 27 27 24 21 22 21 21 22 21 21 22 22 23 25 26 26 26 26 26 25 25 25 25 24 25 25 25 26 26 26 26 26 25 26 26 26 26 26 26 26 26 25 25 25 25 25 24 25 25 25 25 25 25 25 25 25 25 25 25 25 26 26 26 26 26 26 26 25 25 25 25
27 24 27 30 30 30 31 31 29 29 30 29 27 28 27 24 23 23 22 21 21 21 21 21 21 21 21 22 25 25 25 25 25 25 25 25 25 25 25 24 25 25 26 26 26 26 26 25 25 26 26 26 26 26 26 26 25 25 25 25 25 25 25 25 25 25 25 25 25 25 25 25 25 25 25 25 25 26 26 26 25 25 25 25 25 25
28 24 24 29 30 29 30 30 26 26 28 29 28 28 27 24 23 22 22 22 21 21 21 21 21 21 22 24 24 25 25 25 25 25 26 25 24 24 24 24 24 24 25 25 25 25 25 25 26 26 26 26 26 26 26 26 25 25 25 25 25 25 25 25 25 25 25 25 25 25 25 25 25 25 25 25 25 25 26 25 25 25 25 25 25 25
29 25 23 27 30 27 27 28 27 27 28 27 26 26 25 25 24 23 23 21 21 21 21 21 21 21 24 25 25 25 25 25 25 25 26 25 24 24 23 23 24 24 24 24 24 23 23 23 24 25 26 26 26 26 26 26 25 25 25 25 25 25 24 24 24 24 24 24 25 25 25 25 25 25 25 25 25 25 25 25 25 25 25 25 25 25
28 26 23 24 26 25 26 29 29 29 29 28 27 26 25 25 23 22 22 21 21 21 21 21 21 22 25 25 25 26 25 25 25 24 25 25 24 24 23 22 23 23 23 23 22 22 21 21 22 22 23 24 26 26 26 26 25 25 25 25 25 25 24 24 24 24 24 24 24 24 25 25 25 25 25 25 25 25 25 25 25 25 25 25 25 25
28 27 24 23 24 25 27 28 27 28 29 29 29 27 26 26 24 22 21 21 21 21 21 21 20 23 26 25 25 25 25 24 24 23 24 24 24 24 23 22 22 22 23 22 22 22 22 21 22 23 22 22 24 25 26 25 25 25 25 25 25 24 24 24 24 24 24 24 24 24 24 24 25 25 25 25 25 25 25 25 25 25 25 25 25 25
28 27 24 23 25 27 28 29 28 28 29 28 27 26 26 26 25 24 23 22 22 21 21 21 20 23 26 24 24 24 23 24 23 23 24 24 24 23 23 22 21 21 22 22 23 22 21 21 22 23 23 22 23 24 25 25 25 25 25 25 25 24 25 25 25 24 24 24 24 24 24 24 24 24 24 25 25 25 25 25 25 25 25 25 25 25
27 25 23 22 23 23 25 26 27 28 28 28 27 27 26 27 26 25 24 23 22 21 21 21 21 23 25 24 23 23 23 23 23 23 23 24 24 24 23 22 21 20 21 22 22 22 22 22 22 21 22 23 23 23 23 23 24 25 25 25 25 25 25 25 24 24 24 24 24 24 24 24 24 24 24 24 25 25 25 25 25 25 25 25 26 25
27 26 25 22 21 21 21 22 23 25 26 26 27 27 27 27 27 25 23 22 21 21 21 21 21 23 25 24 24 24 24 24 24 23 22 23 23 23 23 22 20 20 20 21 21 21 21 22 22 21 21 22 22 23 22 22 22 24 24 25 25 25 25 25 24 24 24 24 24 24 24 24 24 24 24 24 24 25 25 25 25 25 25 25 26 26
28 26 26 25 23 23 23 24 25 25 25 25 26 27 27 26 26 25 23 21 22 22 21 22 23 23 25 26 26 26 25 25 24 23 23 23 23 23 22 21 20 20 20 20 20 20 21 21 21 21 21 21 21 22 23 23 23 23 24 24 25 25 25 24 24 24 24 24 24 24 24 24 24 24 24 24 24 25 25 25 25 25 25 25 26 26
28 25 26 26 26 26 27 27 27 26 25 25 25 26 27 26 25 25 23 23 23 21 21 23 24 23 25 27 27 27 27 26 25 24 24 23 23 22 21 20 20 20 20 20 20 20 21 21 21 21 20 21 21 22 22 23 23 23 23 23 24 25 24 24 24 24 24 24 24 24 24 24 24 24 24 24 24 25 25 25 25 25 25 25 26 26
29 25 25 25 26 27 28 28 27 27 26 27 27 26 26 25 24 25 24 24 24 23 22 25 24 24 26 28 27 27 27 27 26 24 23 22 21 20 20 20 20 20 20 20 20 20 20 20 21 20 20 21 21 21 22 22 23 23 23 23 23 24 24 24 24 24 24 24 24 24 24 24 24 24 24 24 24 25 25 25 25 25 25 26 26 26
28 26 26 26 26 26 27 27 27 27 27 27 27 27 27 25 25 26 25 25 25 25 25 25 25 26 27 27 26 26 24 24 23 22 21 21 20 20 20 20 20 20 20 20 20 20 20 20 20 20 20 20 20 21 22 22 22 23 24 24 23 23 24 24 24 24 24 24 24 24 24 24 24 24 24 25 25 25 25 26 26 26 26 26 26 26
27 26 27 27 25 25 27 27 27 27 27 26 27 27 27 25 24 25 25 24 24 24 24 24 24 26 26 24 24 23 22 22 22 20 20 20 20 20 20 20 20 20 20 20 20 20 20 20 20 19 19 20 20 21 21 21 22 22 23 24 24 24 24 24 24 24 24 24 24 24 24 24 24 25 25 25 25 25 26 26 26 26 26 26 26 26
28 26 26 26 23 22 25 26 26 27 26 25 26 26 26 24 24 25 25 25 24 24 24 22 23 26 26 23 22 22 22 22 22 20 20 20 19 20 20 20 20 20 20 20 20 20 20 20 20 19 19 20 20 21 21 21 21 21 22 23 23 24 24 24 24 24 24 24 24 24 24 24 24 25 25 25 25 26 26 26 26 26 26 26 26 26
28 27 25 25 22 22 24 25 25 26 24 23 24 26 26 25 25 25 26 25 25 25 24 24 25 26 25 22 23 24 23 23 21 20 20 19 19 19 19 20 20 20 20 20 19 20 20 19 19 19 19 19 20 20 21 21 21 21 22 22 23 23 23 23 24 24 24 24 24 24 24 24 25 25 25 25 25 26 26 26 26 26 26 26 26 26
28 28 26 24 23 22 24 24 24 23 22 22 25 26 27 27 27 26 25 24 23 23 24 25 25 24 23 22 23 24 23 22 20 19 19 19 19 19 19 20 20 20 20 19 19 19 19 18 18 19 19 19 19 20 21 21 21 21 21 22 22 22 22 23 23 23 24 24 24 24 24 25 25 25 25 25 25 26 26 26 26 26 26 26 26 26
28 27 26 24 23 22 23 23 22 21 22 24 24 24 25 26 26 25 24 23 23 22 23 26 26 23 22 22 21 21 21 20 19 19 19 19 19 19 19 20 19 19 20 19 19 19 18 18 18 19 19 19 19 20 20 20 21 21 21 21 21 21 22 22 22 22 23 24 24 24 24 25 25 25 25 25 25 26 26 26 26 26 25 25 25 24
28 27 25 24 23 22 22 22 21 22 24 24 23 23 24 24 25 25 24 24 24 22 23 26 25 22 21 21 20 20 19 19 19 20 19 19 19 19 19 19 19 19 19 18 18 18 18 18 18 18 19 19 19 19 20 20 20 20 21 21 21 21 21 21 22 22 22 22 24 24 24 25 25 25 25 25 25 26 26 25 24 24 23 23 23 22
27 27 26 24 22 22 21 21 22 22 23 23 24 25 25 25 26 27 25 24 24 23 22 24 23 22 22 21 20 19 19 20 21 22 20 19 19 19 18 18 18 18 18 18 18 18 18 18 18 19 19 19 18 19 19 20 20 20 20 20 21 21 21 20 21 22 21 21 22 24 24 24 24 25 25 25 25 25 24 23 23 22 22 22 22 21
26 27 27 24 22 22 21 21 22 21 21 23 25 26 25 25 26 26 25 24 24 23 22 22 24 23 23 21 20 20 20 21 23 23 20 19 19 19 18 18 18 18 17 17 17 18 18 18 18 18 18 17 18 18 18 19 19 19 19 20 20 20 20 20 20 21 21 21 22 22 22 21 22 23 23 24 24 23 22 22 22 22 22 22 22 21
25 26 26 24 22 21 22 21 21 21 22 24 26 26 25 24 24 26 24 23 24 24 22 22 24 24 23 22 20 20 20 22 23 22 19 18 19 19 18 18 18 17 17 17 17 17 18 18 18 17 17 16 17 17 18 18 18 18 18 19 20 20 20 20 20 21 21 21 22 22 22 21 21 21 21 21 21 21 21 20 21 22 22 22 21 20
26 25 25 24 22 21 22 21 21 22 23 25 26 26 24 24 25 25 22 22 24 24 21 22 24 24 23 21 20 20 22 23 22 20 18 18 18 18 18 18 17 17 17 17 17 18 17 17 16 16 16 16 16 17 17 17 17 17 17 18 19 19 20 20 21 21 21 21 20 21 21 21 21 21 20 20 20 20 19 19 20 21 21 20 19 18
25 24 23 23 22 22 22 21 21 22 24 25 26 26 24 24 25 23 22 23 25 24 21 22 24 24 23 21 21 21 22 20 19 19 18 18 18 17 17 17 17 17 17 17 17 17 16 16 16 16 16 16 16 16 17 17 17 17 17 17 18 19 20 20 20 20 20 20 20 19 19 20 20 20 20 19 19 19 19 19 20 20 19 18 18 17
23 23 22 22 22 22 22 22 21 22 24 26 26 25 24 24 24 23 23 24 24 24 22 22 23 23 22 22 22 21 19 18 18 18 18 18 18 17 17 17 17 17 17 16 16 16 16 16 16 16 16 16 16 16 17 17 18 18 17 17 18 19 20 20 20 20 20 20 19 19 19 19 20 20 19 19 20 19 19 18 19 18 18 18 17 16
24 23 21 22 22 21 21 21 20 22 24 26 26 25 25 25 25 24 24 23 23 24 23 22 22 22 22 22 21 19 18 18 18 18 18 17 17 17 17 17 17 16 16 16 16 16 15 15 15 15 15 15 16 17 17 17 18 18 18 18 19 19 19 19 19 19 19 19 19 19 19 19 19 19 19 19 20 20 18 17 18 17 17 17 16 16
25 24 22 23 23 22 21 22 23 25 25 25 26 26 26 26 25 25 25 24 23 24 23 23 23 22 21 22 21 18 18 18 17 17 17 17 17 17 17 17 16 16 16 16 16 16 15 15 15 15 15 15 16 17 17 17 18 18 18 18 19 19 19 19 19 19 18 18 18 19 19 18 18 18 18 18 19 19 17 17 17 16 16 16 16 15
24 24 23 24 24 23 23 24 25 25 24 23 25 27 27 25 24 25 26 26 24 23 22 23 24 22 21 21 20 18 18 18 17 17 17 17 17 17 16 16 16 16 16 16 16 15 15 15 15 15 15 15 15 16 16 17 17 17 17 18 18 18 18 18 18 18 17 17 17 17 17 17 17 17 17 17 17 17 16 16 16 15 15 15 15 15
23 23 23 25 25 24 24 24 24 24 24 23 24 24 25 24 23 24 26 26 24 23 22 23 24 23 20 19 20 19 18 17 17 17 17 17 16 16 15 15 15 15 16 16 15 15 15 15 15 15 15 15 15 15 15 16 16 17 17 17 17 17 17 17 17 17 17 16 17 16 16 16 16 16 16 16 16 16 16 15 15 15 15 15 15 15
24 23 24 25 25 24 24 24 24 24 24 23 23 23 24 24 23 23 25 26 25 23 23 23 23 22 20 19 20 19 18 17 17 17 16 16 16 16 15 14 14 15 15 15 15 15 15 15 15 14 14 14 14 14 15 15 15 16 16 16 17 17 17 16 16 16 16 16 16 16 16 16 15 15 16 16 15 15 15 15 15 15 15 15 15 15
24 24 25 25 24 24 23 22 22 22 22 22 23 24 24 24 23 23 24 24 23 22 22 21 21 20 20 19 19 19 18 17 17 17 16 16 16 15 14 14 15 15 15 15 15 15 15 15 14 14 14 14 14 14 15 15 15 15 15 16 16 16 16 15 15 15 15 15 15 15 15 15 15 15 15 15 16 15 15 15 16 16 15 16 16 16
24 24 24 24 23 22 22 21 21 22 22 22 22 23 23 24 24 23 23 23 22 22 21 20 18 19 19 19 19 18 17 17 17 16 16 16 16 14 14 14 15 15 15 15 15 15 15 15 14 14 14 14 14 15 15 15 15 15 15 15 15 16 16 15 15 15 14 14 15 15 15 15 15 15 15 15 15 16 16 16 16 16 16 16 17 17
24 24 23 23 22 22 23 23 23 24 24 23 22 23 22 22 23 23 23 23 22 22 22 21 18 17 17 17 17 18 18 17 16 16 16 16 15 14 14 15 15 15 15 15 15 15 15 15 15 15 15 14 15 15 15 15 15 15 15 15 15 16 16 15 15 15 14 15 15 15 15 15 15 15 15 15 15 15 15 15 16 16 16 16 17 18
25 25 24 24 24 24 24 23 22 24 25 23 22 22 21 21 22 24 23 22 22 21 20 21 20 18 17 16 16 17 17 16 15 15 16 15 14 14 15 16 16 16 16 16 16 16 16 15 15 15 15 15 15 15 15 15 15 15 15 16 16 16 16 16 15 15 14 15 15 15 15 15 15 15 15 15 15 15 15 15 16 17 17 17 17 17
Height
771 782 788 784 783 783 781 779 780 782 785 789 795 799 800 804 806 800 798 796 794 803 809 807 807 804 800 797 798 797 792 793 794 793 793 793 794 795 796 796 796 797 796 795 797 798 800 801 803 805 806 808 809 811 813 814 815 816 817 819 820 821 822 823 825 827 828 830 831 832 833 834 835 836 837 838 839 840 840 841 841 842 843 843 843 844
775 788 786 776 776 775 776 777 777 781 784 786 793 798 801 804 804 799 799 797 793 802 809 807 809 806 801 799 798 799 798 797 796 795 795 794 794 795 795 796 796 796 796 796 797 798 800 802 803 805 806 807 808 810 812 813 815 816 817 818 819 821 822 823 824 826 828 829 830 831 832 833 834 835 836 837 838 839 840 840 841 841 842 843 843 844
786 788 778 769 771 772 773 775 777 781 783 787 792 799 804 803 803 802 800 799 796 801 808 809 812 808 802 799 798 798 799 798 795 794 793 793 794 795 795 796 796 797 797 797 797 798 799 801 802 804 806 807 807 809 811 813 814 815 817 818 819 820 821 823 824 826 827 829 830 831 832 832 833 834 835 837 838 839 839 840 840 841 842 842 843 844
792 781 768 764 769 774 775 773 776 781 783 787 792 799 805 801 802 804 803 804 800 801 808 811 814 810 803 800 797 796 797 796 794 793 793 791 792 793 793 794 795 796 797 797 797 797 798 800 802 803 805 806 807 808 810 812 813 815 816 817 819 820 821 823 824 825 827 829 830 831 831 832 833 833 835 836 837 838 839 839 840 840 841 842 843 843
785 770 761 765 770 774 777 775 778 783 785 787 789 794 798 796 797 799 802 805 804 804 804 809 819 812 803 803 800 796 797 797 795 794 793 792 790 790 791 792 792 793 794 795 797 796 797 799 800 801 803 805 806 807 808 810 812 813 815 816 818 820 821 822 824 825 827 828 829 830 830 831 832 833 834 835 836 837 838 839 839 840 841 841 842 843
779 764 761 769 771 773 778 778 777 779 785 791 787 783 784 787 793 799 803 807 817 818 803 807 825 817 803 805 802 797 799 799 797 796 794 792 791 791 792 792 792 791 791 792 793 793 794 796 799 800 802 804 805 805 807 809 811 812 814 816 818 819 821 822 823 824 826 827 828 828 829 830 831 832 833 834 835 836 837 838 839 840 840 841 842 843
772 762 762 769 771 775 777 775 771 771 783 791 781 773 779 785 792 801 802 805 819 821 802 802 820 819 806 802 800 799 800 799 798 798 796 793 792 791 791 790 790 791 790 790 791 791 792 795 797 799 801 802 803 804 806 808 811 812 814 815 817 819 820 821 822 823 825 826 826 827 828 829 830 831 832 833 834 835 836 838 839 840 840 841 841 842
765 763 765 767 770 775 774 772 767 766 779 784 771 771 782 786 792 798 799 803 810 810 808 807 812 821 815 803 803 803 801 801 799 797 796 794 793 791 790 788 787 789 788 789 791 790 791 793 794 797 799 800 801 803 805 807 809 811 812 815 816 818 820 820 821 822 824 824 825 827 827 828 829 830 831 832 834 835 836 837 838 839 840 840 841 842
762 763 765 765 770 774 769 767 764 763 774 774 767 774 779 780 788 792 797 805 806 808 820 819 812 825 823 806 807 808 804 805 799 795 795 793 793 790 788 787 785 785 785 786 788 788 789 791 792 795 796 799 800 802 803 805 808 810 812 814 815 817 819 820 821 822 823 824 824 826 827 828 828 829 831 832 833 834 835 836 837 838 839 840 841 841
761 758 757 760 768 769 761 760 759 760 768 767 768 777 780 784 789 793 802 805 807 815 822 819 815 825 822 805 808 812 807 804 796 792 792 789 790 789 787 786 784 783 783 783 784 785 787 788 790 793 795 798 799 800 802 804 806 809 810 813 814 816 817 819 820 821 822 823 824 825 826 826 828 829 830 831 832 833 834 835 836 837 838 839 840 841
760 753 752 755 758 757 754 756 758 758 762 764 772 782 789 795 794 800 806 803 817 827 817 814 816 819 820 809 807 808 799 795 792 790 789 787 788 787 785 784 782 782 782 782 782 783 785 787 789 792 794 796 798 799 801 803 805 807 809 811 813 814 816 818 819 820 821 822 822 823 824 825 827 828 829 830 831 832 833 834 835 836 837 838 839 840
762 758 756 751 747 750 752 758 760 759 760 763 774 786 797 807 807 811 812 810 830 833 813 813 816 817 824 812 800 797 789 788 790 786 785 785 784 784 782 781 779 779 779 779 781 782 784 787 789 791 793 795 797 798 800 802 803 805 807 809 811 813 815 816 818 819 819 820 821 822 823 824 825 826 828 828 830 831 831 832 834 835 836 837 838 839
767 763 759 751 746 748 755 765 766 764 764 767 776 786 802 822 830 832 831 829 835 827 811 813 815 818 820 802 790 790 785 785 785 780 780 780 779 780 779 778 777 777 777 777 779 780 782 784 786 789 791 793 795 796 798 800 802 804 805 807 809 811 813 814 816 817 818 819 820 821 822 823 824 825 826 827 828 830 830 831 833 834 835 836 836 837
778 769 760 757 754 748 754 768 774 773 772 771 776 785 800 823 838 843 841 838 834 823 812 809 811 817 812 795 789 788 783 782 780 778 777 775 775 775 774 775 775 775 775 775 777 778 779 781 783 785 788 790 793 794 796 798 800 802 804 805 807 809 811 813 814 816 817 818 818 820 821 822 823 824 825 826 827 828 829 830 831 832 833 834 835 836
791 784 767 762 761 754 753 760 766 770 772 774 774 779 790 803 818 829 832 831 829 824 815 810 812 815 809 797 789 783 780 778 777 775 774 772 772 772 772 774 774 774 774 773 775 776 776 778 780 783 785 787 790 792 794 796 798 800 801 803 805 807 809 811 813 814 815 816 817 819 820 821 822 823 824 825 826 827 828 829 830 831 832 833 834 835
791 787 766 757 755 753 755 755 756 764 775 780 776 778 786 788 794 811 820 817 819 822 818 813 811 805 798 791 783 780 779 776 774 773 772 772 772 771 774 774 774 774 773 773 774 774 774 776 778 780 783 785 787 790 792 794 795 797 799 801 802 805 807 809 810 812 813 815 816 817 819 820 821 822 823 824 825 826 827 828 829 830 831 832 833 834
789 786 765 756 755 752 755 756 755 764 775 780 781 785 786 780 782 802 817 815 816 824 821 815 811 802 797 792 783 782 781 777 777 775 773 774 773 773 775 774 774 774 772 772 772 773 773 774 776 778 780 783 784 787 789 791 792 794 796 798 800 802 805 807 808 810 812 813 815 816 817 818 819 820 821 822 823 824 826 827 828 829 831 831 832 833
781 785 770 762 765 758 751 754 756 758 765 776 785 784 780 781 784 795 813 820 826 830 822 816 816 812 811 804 789 785 786 783 781 778 776 775 773 775 776 774 773 772 771 771 771 771 772 772 774 776 777 780 781 783 785 787 790 792 793 795 797 800 802 804 806 807 809 811 813 814 816 817 818 819 820 821 822 823 825 826 827 828 829 830 831 832
772 786 779 766 768 762 751 757 767 764 760 766 774 773 778 793 798 800 813 823 830 836 829 820 821 817 813 805 793 791 792 787 784 782 779 778 776 776 776 774 773 771 771 771 771 771 771 771 772 773 775 777 778 781 783 785 788 789 792 793 794 797 798 801 803 805 807 809 810 812 814 815 817 818 819 820 821 823 823 824 826 827 828 829 830 831
768 785 788 769 763 765 760 765 779 779 770 766 769 774 779 790 798 803 810 816 822 835 836 828 825 817 804 796 793 793 791 787 786 784 780 780 779 778 777 776 774 773 772 771 771 772 770 770 770 770 772 774 776 779 780 783 786 787 789 791 793 795 796 799 801 802 805 806 808 810 812 813 815 816 818 819 820 821 822 823 824 825 827 827 829 830
767 781 790 777 766 771 774 773 778 779 777 778 781 785 787 790 796 801 809 814 817 827 834 834 831 814 792 787 789 788 787 786 785 783 780 779 778 777 778 776 774 774 774 772 771 773 775 775 774 771 771 772 774 777 779 781 783 784 787 788 790 793 794 796 798 800 802 803 805 807 809 811 813 814 816 817 819 820 820 822 823 824 826 826 827 829
768 777 786 784 777 780 779 771 768 768 770 775 778 783 787 790 797 806 818 821 817 819 824 830 831 808 784 782 783 782 783 783 782 782 780 778 777 776 776 776 774 773 774 775 774 774 776 778 779 778 777 775 774 775 777 779 781 782 785 786 788 790 792 794 796 797 799 801 802 804 806 808 810 812 814 815 817 818 819 820 821 823 824 825 826 827
763 773 783 787 784 782 777 768 766 767 766 769 773 779 785 786 791 803 816 817 817 820 819 824 828 805 781 779 780 779 782 781 781 782 780 779 777 775 775 776 775 772 770 773 773 771 771 773 775 778 780 780 778 776 776 778 780 781 782 784 786 788 789 791 793 795 797 798 800 801 803 806 808 809 811 813 814 816 817 819 820 821 823 823 824 826
762 776 786 789 786 780 772 766 765 765 767 773 778 780 784 784 785 791 799 802 812 820 817 825 830 805 781 780 780 780 782 780 781 782 780 780 777 775 776 775 777 775 770 769 768 767 768 768 770 773 776 778 779 779 778 777 778 780 781 782 784 785 787 788 791 793 794 796 797 799 801 803 805 807 809 810 812 813 815 817 818 820 821 821 822 824
766 781 788 795 802 800 792 787 780 773 773 778 781 781 781 782 785 791 795 799 809 814 813 821 825 802 782 783 782 781 783 782 781 781 779 779 777 775 775 774 777 777 773 770 767 766 767 767 768 770 772 773 774 777 779 780 780 779 779 781 782 783 785 786 789 791 792 794 795 797 799 800 802 804 806 808 810 811 813 815 817 818 819 819 821 821
765 779 782 793 811 818 815 809 797 785 782 782 782 780 780 781 783 788 797 806 811 813 811 812 811 796 784 784 782 780 782 782 781 781 780 778 777 776 775 776 778 778 776 774 770 768 767 765 765 767 769 770 770 771 775 780 783 782 781 781 781 783 784 785 787 789 790 792 793 795 796 798 800 801 803 805 807 809 812 813 815 816 817 818 819 819
767 777 776 781 792 797 797 792 786 783 785 785 783 780 780 783 783 785 798 806 805 810 813 804 797 794 787 783 781 778 779 780 781 780 779 778 778 776 776 777 779 779 777 775 773 772 770 767 765 764 765 766 768 769 770 774 778 781 782 782 781 782 783 784 786 787 789 790 791 792 794 795 797 799 801 803 805 808 810 811 813 814 815 816 817 817
769 777 778 778 778 778 779 777 777 781 782 782 783 781 780 784 786 786 792 796 795 808 813 798 792 796 788 779 779 776 775 777 778 778 777 777 777 777 777 778 779 779 777 775 774 774 773 771 767 765 764 764 766 768 770 771 772 774 779 782 783 782 783 784 785 785 787 788 789 790 791 793 795 797 799 801 804 806 807 809 810 811 813 814 814 814
766 776 779 780 778 776 777 776 777 780 780 779 779 778 778 784 787 783 784 787 788 796 797 787 788 792 782 776 776 774 772 773 774 775 776 777 778 779 779 780 780 780 779 777 776 774 773 772 769 767 767 767 766 766 767 769 770 771 773 778 783 783 782 783 784 784 785 785 786 787 788 791 793 795 798 800 802 803 805 806 807 809 810 811 812 812
763 773 776 777 778 777 777 779 778 778 778 777 775 775 775 780 782 778 780 786 785 784 786 785 786 783 776 775 775 772 773 774 774 777 778 779 781 781 781 781 781 781 780 778 776 775 774 773 771 769 769 768 769 768 767 766 768 769 768 770 776 781 781 781 781 782 783 783 784 785 786 789 791 793 795 797 798 800 801 802 803 805 807 808 809 810
762 772 775 775 780 781 778 777 778 777 777 776 774 774 774 779 783 781 781 787 788 788 789 790 788 781 775 775 774 773 775 775 777 781 782 781 782 782 783 783 782 781 780 778 776 775 774 773 772 771 770 769 769 768 768 766 765 766 766 766 768 773 777 779 779 779 781 781 782 784 785 787 788 790 792 793 795 796 797 799 800 801 803 805 806 807
761 772 775 775 785 787 778 777 777 774 775 777 775 775 776 781 785 782 779 782 784 787 792 795 791 781 774 774 776 776 776 776 780 785 785 784 783 782 783 783 782 781 780 779 777 775 775 774 772 771 770 769 769 768 767 767 766 765 766 766 766 767 772 776 776 776 777 778 780 782 783 785 786 787 789 789 791 793 794 796 797 799 800 802 804 805
761 770 773 778 788 789 781 780 779 776 784 788 780 775 776 777 778 778 777 779 780 782 787 789 783 775 773 776 777 776 777 778 781 784 784 784 783 782 782 780 780 780 778 777 777 775 775 774 772 771 769 769 769 767 766 766 766 766 765 766 767 767 769 772 774 774 774 775 777 779 780 783 784 784 785 786 788 790 792 793 794 796 798 799 801 803
762 765 771 778 784 787 784 781 783 791 800 795 778 770 770 771 772 775 779 782 782 782 780 777 775 774 775 777 777 777 779 780 781 782 781 782 782 781 780 779 778 777 776 777 777 776 775 773 772 770 769 767 767 767 766 766 766 766 766 766 767 768 768 769 772 774 773 772 773 776 777 779 781 782 783 784 786 787 789 791 792 794 796 797 799 800
762 765 774 778 780 786 787 786 798 808 799 781 773 770 768 768 769 774 780 782 781 782 778 773 773 776 776 778 780 781 781 781 782 781 779 780 780 780 779 779 778 778 777 778 778 776 775 773 771 770 768 767 766 765 765 765 765 765 766 766 767 767 766 767 769 772 773 771 770 772 774 776 777 779 780 781 783 785 786 788 790 792 794 795 797 798
760 765 772 778 782 788 790 794 804 802 785 775 778 774 769 771 771 773 780 781 777 779 779 774 774 778 779 780 782 782 782 782 781 779 778 778 778 779 780 780 779 779 778 778 777 776 774 773 771 770 768 766 765 764 763 764 764 764 764 764 764 764 764 765 765 767 770 771 769 769 771 773 774 776 777 779 781 782 784 786 788 789 791 793 795 796
755 761 766 776 785 790 793 796 794 789 786 785 781 773 768 770 770 770 779 781 775 775 778 776 777 778 778 780 782 782 782 782 781 779 777 777 778 778 779 779 778 778 777 776 775 774 773 772 771 769 767 765 764 763 762 762 762 762 761 761 760 759 760 761 762 762 765 768 769 769 769 770 771 772 774 777 779 780 782 783 784 786 788 791 793 795
752 756 759 771 785 790 793 797 797 797 796 785 775 768 764 764 766 766 775 781 775 772 776 777 776 776 776 779 782 782 782 783 782 780 778 778 778 777 777 777 777 777 776 775 774 773 772 771 769 767 766 764 762 761 760 760 760 759 759 759 757 756 755 756 758 759 761 763 766 767 767 770 773 774 774 774 776 778 779 781 783 785 787 789 792 794
754 757 758 768 783 788 788 793 800 801 790 776 769 766 763 764 764 766 778 785 775 770 775 776 774 775 776 778 781 783 786 787 785 782 780 778 777 776 777 777 776 776 776 774 774 772 770 769 768 766 765 763 761 760 759 758 757 756 756 755 755 754 752 751 752 755 757 760 762 762 763 766 773 777 778 778 777 776 777 780 783 785 787 788 790 793
758 761 764 771 782 785 785 790 795 791 780 771 766 764 764 762 761 774 795 792 772 768 774 774 772 773 774 778 782 783 784 784 783 782 780 778 777 777 777 776 776 776 775 774 773 771 769 768 767 765 764 762 760 758 757 756 754 752 752 752 752 751 749 749 750 751 754 758 760 761 762 764 768 773 777 781 782 778 778 783 786 786 786 788 791 793
764 766 771 776 779 782 784 789 792 785 773 766 763 762 762 762 768 786 796 781 765 768 772 770 770 771 772 776 779 778 779 779 779 779 778 777 777 777 777 777 777 776 775 774 773 770 769 768 766 764 763 760 758 755 753 752 749 747 746 748 748 747 746 748 749 750 751 754 757 760 764 767 768 769 772 778 781 779 779 783 786 786 787 789 792 794
770 773 778 778 779 782 781 785 794 788 769 759 760 760 760 768 780 784 775 764 764 767 768 768 769 769 770 773 774 775 777 777 777 777 777 777 777 778 778 777 777 776 775 773 772 770 769 767 766 764 761 758 756 753 750 747 743 740 741 742 743 744 745 746 748 749 749 751 753 757 762 767 769 769 771 775 778 778 778 781 783 784 786 789 792 794
764 771 779 777 778 785 787 790 798 790 765 754 759 763 763 768 771 766 761 763 765 762 764 768 768 767 770 770 771 775 777 776 777 777 777 778 778 778 778 777 776 776 774 773 772 771 769 767 765 763 761 757 754 751 747 744 740 737 738 739 739 741 743 745 746 748 750 751 752 755 758 763 767 769 771 774 776 777 778 780 782 784 786 789 792 795
760 766 775 774 772 780 787 786 780 768 754 751 757 760 759 757 756 755 758 762 762 761 763 765 764 766 768 767 770 775 775 776 778 778 778 779 778 777 778 777 776 776 774 773 772 771 769 768 766 763 760 757 755 752 748 745 742 739 739 740 740 741 743 744 746 749 750 751 752 754 756 760 765 767 770 773 775 777 779 782 784 786 789 791 793 795
760 760 763 764 762 767 771 768 759 753 752 753 753 752 751 751 752 753 754 756 759 761 761 762 763 764 765 766 770 773 774 776 777 777 778 779 778 778 778 777 777 776 775 774 773 771 770 768 766 764 761 758 756 753 750 748 745 742 742 743 743 743 743 744 746 748 750 751 752 754 755 758 762 766 770 774 776 778 781 784 787 790 793 795 795 796
757 755 755 756 757 759 760 757 754 753 753 753 752 751 750 751 752 752 751 754 756 757 758 760 760 761 763 767 769 771 773 775 776 777 778 778 778 778 778 778 777 777 775 775 774 772 771 769 767 765 763 761 758 756 753 751 748 747 746 746 745 745 746 746 747 748 750 752 754 755 756 758 762 767 771 775 779 781 784 787 790 793 796 797 797 798
754 753 753 755 758 761 762 759 756 755 755 753 753 753 751 751 751 750 751 752 753 754 757 757 758 760 764 765 767 770 773 774 775 777 778 777 778 778 778 778 778 777 776 776 774 773 772 771 769 767 765 763 762 759 757 755 753 751 750 749 748 748 749 749 750 751 752 753 755 757 758 760 764 769 773 777 782 786 789 792 794 795 797 798 798 799
755 754 755 758 760 763 764 762 759 758 756 754 754 753 751 751 751 750 750 751 752 754 756 757 759 761 763 764 766 769 771 773 775 776 777 778 778 778 778 778 778 777 777 776 775 775 774 772 771 770 768 766 765 763 760 759 757 756 754 753 753 752 752 754 755 756 756 756 757 760 762 765 767 771 776 780 785 788 793 797 798 798 799 800 800 801
754 755 757 760 765 768 767 764 761 761 760 757 755 754 752 751 751 751 752 752 753 755 756 758 760 761 762 765 766 767 771 774 774 775 777 778 778 778 779 779 778 778 778 777 777 776 775 775 774 772 770 769 768 766 764 763 762 762 760 759 759 758 757 759 760 761 762 762 762 764 767 769 773 777 781 784 786 791 797 801 801 801 802 803 803 803
754 758 758 762 769 770 764 758 757 759 761 759 755 753 752 751 752 752 753 753 754 756 757 759 761 762 762 764 765 766 770 773 773 775 777 777 778 779 779 779 779 779 779 779 779 778 777 777 776 774 773 772 771 770 769 768 767 767 766 766 765 763 762 763 765 767 768 769 770 771 773 775 779 784 787 788 789 793 799 803 804 805 804 804 805 807
752 754 755 758 762 760 753 750 751 752 754 754 752 751 751 751 751 752 753 754 755 756 757 758 760 762 764 765 765 766 768 770 773 775 776 777 779 779 779 779 780 780 779 780 779 779 779 779 778 777 776 775 774 773 773 773 772 772 772 771 770 768 768 768 769 772 774 775 777 779 779 780 784 787 790 791 794 796 799 802 804 806 807 807 809 811
Wind_Speed
3 1 2 5 6 6 7 8 7 5 5 5 4 3 4 4 2 2 2 2 6 4 2 5 4 4 6 5 0 0 0 3 3 4 5 6 7 7 7 7 7 7 6 9 14 18 21 23 23 22 22 23 23 23 23 23 22 21 21 20 20 21 21 20 19 18 17 16 16 15 15 16 15 14 15 17 17 15 14 13 12 12 11 10 9 9
4 2 6 8 8 7 6 7 6 4 5 4 4 4 4 3 2 1 2 4 5 3 1 3 4 6 6 5 2 2 2 2 3 4 4 5 7 7 7 7 8 6 5 7 9 13 20 21 22 22 21 23 23 23 24 24 23 22 22 21 21 22 22 21 20 19 18 17 17 16 16 16 15 15 18 19 17 14 12 12 12 12 12 11 9 9
3 3 10 11 7 4 4 3 4 3 4 4 3 4 4 3 1 3 2 4 3 1 2 3 5 6 6 5 4 2 4 3 5 4 4 6 7 7 7 8 8 6 5 6 5 9 18 20 22 23 22 23 25 25 24 24 24 23 23 22 22 23 23 22 21 19 19 18 17 16 15 16 16 17 20 18 15 13 12 11 11 12 12 11 10 9
1 6 10 9 5 3 6 5 4 4 3 4 5 4 3 4 4 0 1 3 2 2 1 3 3 4 5 4 5 3 4 2 3 5 3 4 7 8 8 8 9 9 8 8 6 7 15 19 21 22 22 23 24 25 25 24 24 24 24 24 23 23 23 22 21 20 19 17 16 16 15 17 18 19 20 17 14 13 12 11 11 11 11 12 11 10
6 9 5 3 1 5 5 7 5 3 2 2 4 5 4 7 6 2 4 5 2 2 2 4 2 4 4 4 6 2 0 1 2 5 4 3 4 6 8 8 10 11 10 10 8 8 14 18 20 23 23 24 24 25 26 26 26 25 25 25 24 24 23 22 21 20 19 18 17 18 17 17 17 16 18 17 15 15 13 12 12 11 11 11 12 11
10 9 2 2 3 7 6 6 5 5 3 1 4 7 9 10 7 7 8 6 4 3 2 4 2 5 3 4 7 3 1 3 2 4 6 5 4 4 8 9 9 10 10 10 10 11 15 18 20 22 23 23 24 26 28 27 26 26 26 26 24 24 23 22 22 21 21 20 19 19 18 18 16 15 16 17 17 16 14 13 13 12 11 11 12 13
7 6 3 4 5 7 6 5 5 5 6 1 5 7 8 9 10 11 10 6 2 2 3 4 4 3 4 3 6 4 5 6 4 4 6 5 5 5 7 9 9 9 9 9 9 11 15 18 19 21 22 24 25 27 29 28 27 27 27 27 25 25 23 22 22 22 22 20 19 19 20 20 18 18 19 18 17 16 14 13 13 12 12 11 11 13
4 2 1 2 2 4 3 3 4 5 7 2 2 7 11 12 12 13 11 4 2 1 2 1 3 0 3 4 4 2 5 6 6 7 7 5 6 6 6 9 11 11 10 9 9 10 14 18 21 22 24 26 26 27 28 28 28 28 29 29 27 26 24 22 21 23 22 20 19 20 20 20 20 19 19 18 17 15 14 13 13 12 12 11 11 12
2 1 3 4 2 2 3 4 5 7 4 5 3 9 10 12 13 11 8 3 2 3 2 2 2 1 4 5 4 2 3 6 8 10 9 7 7 7 7 8 11 12 11 11 11 12 14 19 23 24 25 26 26 27 28 29 29 30 31 31 29 28 26 23 22 23 22 19 19 20 20 20 20 19 17 17 17 15 14 14 13 13 12 11 12 13
3 4 6 6 4 5 6 6 7 7 2 2 6 9 5 6 7 6 5 4 4 3 2 5 4 2 3 4 3 3 1 6 8 8 8 8 8 8 8 7 9 11 10 11 11 13 17 22 25 25 26 25 26 28 29 28 29 30 31 31 31 30 27 26 24 24 23 20 19 20 20 20 20 18 17 17 17 16 16 15 14 14 13 13 13 13
5 5 3 4 4 6 5 3 3 5 5 5 8 9 8 7 4 4 3 4 4 2 5 6 6 4 2 4 2 1 3 5 5 5 5 7 8 9 9 8 9 10 10 10 10 13 18 23 25 25 25 25 25 27 28 27 28 30 31 31 32 30 28 27 26 25 24 23 21 20 21 21 20 19 18 19 19 18 18 18 17 15 14 14 14 13
6 3 2 3 2 4 3 2 2 3 4 6 6 6 6 5 5 4 4 4 2 3 6 4 5 4 1 4 4 4 6 5 5 6 7 9 10 10 9 9 8 9 10 11 10 12 15 17 20 23 24 24 25 26 27 27 28 30 31 31 31 29 28 28 27 25 25 24 22 21 22 23 21 20 20 21 20 20 20 20 19 17 16 16 15 15
5 3 4 5 1 4 5 2 2 6 5 6 5 5 5 2 3 2 2 1 2 5 5 2 4 3 3 6 5 5 6 5 6 7 7 9 11 11 10 10 9 8 10 11 10 11 11 12 17 21 23 24 25 26 27 28 28 29 31 31 31 29 29 30 29 25 24 25 24 22 23 24 22 21 21 21 21 21 21 21 20 19 18 17 17 16
4 6 6 3 3 1 6 4 1 2 3 4 5 4 4 3 2 1 3 1 2 4 4 3 3 2 3 2 3 5 6 5 5 6 6 7 9 11 11 11 9 8 9 10 10 11 11 12 18 22 24 25 26 27 28 28 29 30 30 31 32 30 30 32 31 27 25 25 25 23 23 23 22 22 21 21 21 21 21 21 21 20 19 18 18 17
2 3 4 2 2 2 3 4 5 5 3 2 4 5 5 4 4 3 3 2 3 3 4 3 2 2 2 2 4 5 6 5 3 4 4 5 6 7 8 9 10 9 9 9 10 11 12 16 21 23 24 26 27 29 29 29 29 30 30 32 32 31 32 34 33 30 27 26 25 24 24 23 22 21 21 22 22 21 21 21 20 20 19 18 17 17
3 2 6 3 1 2 2 2 4 6 3 1 1 5 2 3 5 3 3 4 3 2 2 2 2 3 3 3 4 4 5 5 4 4 3 2 1 4 5 7 8 9 8 8 9 10 12 17 22 23 25 26 28 29 29 30 31 31 31 32 33 33 33 34 34 32 30 28 26 25 25 24 23 21 21 22 22 22 21 20 20 20 19 18 17 16
2 2 6 5 4 1 2 2 3 4 2 1 3 2 2 2 6 4 1 0 4 2 2 1 1 3 2 2 4 6 6 6 7 6 5 4 2 4 5 6 6 7 8 8 8 10 11 15 20 23 25 27 28 29 30 31 33 34 33 33 33 33 33 34 35 34 32 30 28 27 27 26 25 22 21 22 22 22 21 19 19 19 18 18 17 17
4 1 5 4 3 2 1 4 6 4 3 3 2 4 2 2 4 4 2 2 4 1 3 2 2 3 1 1 4 6 6 6 7 6 5 5 4 2 3 5 6 7 7 7 8 10 11 14 19 23 26 28 30 31 32 34 35 35 35 35 35 34 34 35 35 35 34 33 31 30 29 29 27 24 22 21 22 22 21 20 19 19 19 19 18 18
4 2 6 4 1 2 3 6 6 6 4 5 4 3 3 2 0 1 2 0 1 1 3 3 2 2 2 3 3 3 4 5 6 6 5 5 5 3 1 1 4 5 4 5 7 8 9 13 18 22 24 28 31 32 33 34 34 35 35 36 36 36 37 37 36 35 34 34 33 32 31 31 30 27 23 22 22 22 22 21 20 19 20 20 19 19
3 4 3 6 2 2 5 4 2 2 5 4 3 3 3 3 3 1 1 2 2 2 2 3 3 2 4 4 3 3 5 4 4 5 4 3 4 3 3 2 2 2 1 2 3 5 7 13 21 25 26 27 29 31 32 32 33 35 36 35 35 36 37 36 36 35 34 34 33 32 31 31 32 30 26 23 22 23 23 22 21 21 20 20 19 19
3 4 1 5 6 3 1 0 5 5 3 2 2 1 1 2 2 2 1 2 3 3 2 1 1 4 6 3 5 5 5 4 5 4 4 4 3 2 1 1 0 1 1 3 1 2 2 4 9 15 22 27 28 28 30 32 33 34 35 35 35 35 34 34 35 35 35 35 34 32 31 31 32 31 29 25 23 24 24 23 22 22 21 20 19 19
2 3 3 1 4 2 3 6 5 8 7 5 4 4 4 3 3 3 1 1 1 3 3 3 2 6 5 3 5 5 5 4 4 4 4 4 4 3 2 2 2 3 3 2 1 4 3 4 9 11 9 12 20 25 27 29 32 33 33 34 35 34 34 34 35 35 35 34 34 33 32 31 31 32 30 28 25 25 25 24 23 23 22 21 20 18
3 4 4 0 1 2 7 7 1 5 5 5 3 3 4 3 4 5 2 3 1 2 1 3 1 5 5 3 4 4 4 4 3 3 4 5 4 4 3 2 0 2 3 5 5 5 7 9 9 7 10 13 12 18 24 27 29 32 34 35 34 33 35 35 36 36 36 34 34 34 33 32 31 31 31 30 28 27 26 26 25 24 23 23 21 19
3 4 3 1 4 4 6 6 4 3 5 5 2 1 4 2 3 5 4 3 3 2 1 2 1 5 5 3 2 2 2 2 2 2 4 4 4 4 4 3 3 3 4 4 8 7 7 11 12 10 10 13 14 11 16 24 29 31 32 33 34 35 36 36 36 36 35 35 34 34 33 32 32 31 31 30 30 29 28 27 26 25 24 24 22 20
1 2 3 3 3 4 4 4 5 4 3 2 1 1 2 3 6 4 1 3 2 3 4 4 3 6 5 3 2 1 1 2 3 3 3 4 3 4 5 3 4 2 5 3 5 7 8 9 9 9 12 15 14 12 11 14 21 28 31 33 33 35 36 36 36 35 34 34 34 33 33 33 32 31 31 31 30 30 28 27 26 25 24 24 23 22
2 3 4 5 4 3 3 3 3 2 0 0 1 3 2 4 7 4 2 4 1 2 4 4 4 5 5 4 4 4 2 2 4 4 3 3 3 3 4 4 3 2 3 6 5 4 6 7 9 11 13 15 16 18 15 11 13 19 25 31 34 34 35 36 35 34 34 34 33 32 32 32 32 31 31 31 30 29 28 27 27 26 26 24 23 24
4 2 3 6 7 7 6 6 5 3 2 1 2 3 3 3 5 6 4 2 3 3 2 4 5 2 6 5 6 7 4 4 4 4 4 3 3 4 4 3 3 3 2 4 5 5 5 6 7 11 17 16 13 17 22 20 16 17 20 25 32 34 34 34 34 34 34 34 33 32 32 32 32 32 31 30 30 29 28 28 27 27 26 25 24 25
5 1 1 6 7 7 7 7 5 3 3 4 4 4 6 5 5 6 5 4 5 6 2 7 5 3 6 6 6 7 6 5 5 6 5 4 3 3 3 4 4 4 3 4 4 5 6 6 7 8 13 16 15 15 17 21 23 19 17 20 26 31 32 32 33 34 34 34 33 33 33 33 32 31 30 29 29 29 28 29 29 29 27 25 24 25
6 1 3 5 4 6 5 4 3 3 4 4 5 6 7 7 8 7 6 6 8 7 5 7 7 7 7 6 5 7 6 5 5 5 3 2 1 1 3 4 5 4 5 5 4 5 6 7 6 7 8 10 13 15 16 18 22 22 19 18 22 27 31 32 32 33 34 34 34 35 34 33 32 31 30 29 28 29 29 29 30 29 29 28 26 25
4 2 3 4 1 4 5 5 3 4 2 2 4 6 6 10 12 9 5 6 7 5 5 5 8 8 7 5 6 6 4 3 2 1 3 3 3 3 3 4 4 5 5 4 5 5 6 7 7 7 7 7 9 12 15 19 21 23 25 23 21 24 30 32 32 33 33 33 34 35 34 33 32 31 30 30 30 30 30 30 30 30 29 29 28 26
3 2 2 4 2 4 4 2 3 4 3 1 5 5 2 8 10 4 2 4 3 2 1 4 5 7 6 4 5 4 2 1 2 5 4 2 2 3 3 3 3 4 5 5 4 5 5 7 7 7 6 5 8 10 13 17 20 21 25 26 25 25 28 31 33 33 33 34 35 34 33 32 32 31 32 32 32 32 32 31 31 30 29 29 29 28
4 1 1 5 3 3 4 2 2 3 5 2 6 6 1 5 5 3 2 4 5 3 2 4 2 6 5 3 2 3 4 3 3 4 3 1 1 2 1 0 1 2 3 4 4 4 5 5 5 7 8 7 9 10 12 14 17 21 23 26 28 28 29 31 34 34 34 34 34 33 32 32 32 32 33 33 33 33 32 32 32 31 30 29 28 28
4 4 2 4 3 4 4 4 4 5 6 3 5 3 3 5 4 3 2 1 2 5 5 3 4 6 3 3 2 3 4 3 3 2 2 2 2 2 2 2 2 2 2 2 2 3 3 4 6 9 11 11 11 12 12 12 14 19 23 27 29 28 28 30 32 34 35 35 34 33 32 32 33 33 34 34 34 33 32 32 31 30 29 27 26 26
5 5 4 3 3 4 5 4 4 3 1 4 6 5 6 6 7 7 3 2 2 1 4 4 4 3 3 5 4 2 3 2 2 2 3 3 3 3 2 3 4 3 2 1 2 3 3 5 8 10 11 12 11 12 14 13 12 14 18 23 27 26 26 26 27 29 32 34 34 33 33 34 34 34 34 34 34 34 33 32 31 30 28 26 24 24
6 5 3 2 4 3 2 5 4 3 6 6 5 3 3 7 9 9 3 1 2 2 0 2 2 2 3 4 2 1 2 3 2 3 3 3 3 3 3 2 2 1 1 2 2 3 5 7 10 11 12 12 12 11 12 13 13 13 14 17 22 26 28 28 28 29 31 32 34 33 33 34 34 34 34 34 34 34 32 31 29 26 23 20 20 20
7 5 3 2 3 2 1 4 2 6 5 2 5 3 3 5 7 7 3 4 2 1 1 2 3 1 2 4 2 1 2 2 2 3 4 4 3 3 2 2 2 1 1 2 3 4 7 9 11 12 13 13 13 13 13 13 13 13 14 16 19 24 28 28 29 30 28 27 31 33 34 35 35 34 33 33 33 32 28 25 21 18 17 16 16 16
7 5 3 2 2 3 3 2 2 3 1 3 2 2 3 3 4 5 2 4 5 2 3 3 2 2 1 2 2 1 1 3 4 4 4 2 2 2 3 2 2 2 2 2 4 5 6 9 11 13 14 14 15 16 16 14 13 13 15 16 19 24 27 27 28 30 29 28 29 30 30 31 33 35 34 32 30 26 22 20 19 18 18 16 14 14
6 5 5 4 2 3 4 1 1 1 2 4 5 6 3 4 6 6 5 2 6 3 4 5 4 3 1 1 0 2 3 4 3 4 4 2 2 2 1 2 1 1 2 3 4 4 6 8 11 13 14 15 17 19 18 17 16 15 16 17 20 25 28 27 26 27 29 30 30 27 22 17 17 22 28 29 26 23 20 20 20 19 18 17 16 15
6 3 4 5 2 2 4 3 2 3 4 6 7 7 3 4 7 5 5 3 7 5 5 5 5 4 4 3 2 3 4 2 4 5 4 2 2 2 2 3 3 2 2 2 1 3 7 10 11 12 13 15 18 19 18 18 18 17 18 19 21 24 27 28 28 27 27 28 28 28 24 17 12 12 13 14 18 22 23 22 20 18 17 18 18 19
6 4 4 4 3 3 4 3 2 3 3 5 6 6 3 4 7 6 3 5 6 5 6 6 5 5 5 4 3 4 3 2 4 4 2 2 4 3 3 4 3 3 3 2 1 4 8 9 9 10 12 14 17 18 18 18 19 20 21 21 22 23 26 28 27 26 24 21 19 20 21 20 18 16 13 13 17 22 23 21 19 19 20 21 21 22
4 3 3 4 4 4 4 3 2 3 4 5 6 5 3 2 5 4 4 6 5 6 6 6 6 6 5 6 4 3 4 4 4 3 3 5 5 3 4 5 4 3 2 1 3 5 7 7 8 9 11 13 15 17 17 16 20 25 26 22 22 24 26 25 24 23 23 19 15 15 16 16 18 19 19 19 19 19 20 19 19 19 22 24 24 24
1 2 2 3 4 3 3 3 0 3 5 6 5 2 0 2 2 4 6 4 5 7 7 6 6 6 6 6 6 4 3 3 4 4 4 5 5 3 4 5 4 2 1 1 3 5 6 7 9 10 11 13 13 15 15 13 17 24 26 23 23 24 25 24 22 21 22 21 18 17 18 18 18 19 19 19 18 19 22 22 22 23 25 26 27 26
3 2 1 2 4 2 2 3 2 3 5 6 5 2 1 3 5 5 3 2 4 6 6 6 6 5 6 6 4 4 4 3 4 5 4 4 5 4 4 4 2 1 2 3 5 6 7 8 9 11 12 14 13 14 14 10 5 9 14 18 22 24 24 23 22 19 19 22 22 21 22 22 22 23 24 23 22 23 24 25 26 28 28 29 29 29
2 3 2 3 3 3 3 2 3 5 6 6 6 4 4 4 5 6 6 4 3 4 5 5 5 5 7 6 4 5 5 4 4 4 4 4 4 4 4 4 3 1 2 5 6 7 7 8 9 11 13 15 14 13 13 12 10 8 8 11 18 23 24 24 23 21 22 24 25 26 26 27 27 28 29 28 27 27 28 28 29 30 30 31 32 31
4 4 4 3 3 4 4 5 5 4 3 3 4 5 5 4 3 6 7 5 4 4 4 4 5 5 5 5 6 5 4 4 4 4 4 4 4 4 3 3 3 3 4 6 6 7 8 8 9 11 15 16 16 15 14 13 14 15 13 12 17 22 22 24 26 25 25 27 28 29 31 32 32 32 31 30 30 31 32 32 31 30 30 30 31 31
4 4 4 3 2 2 2 2 2 0 1 0 1 1 2 4 4 5 6 4 4 5 4 4 5 5 5 6 5 4 4 5 5 5 5 5 4 4 3 4 5 5 5 5 6 6 7 8 10 13 15 17 17 18 17 16 17 17 15 16 21 23 23 25 27 26 26 27 27 29 33 35 34 34 33 33 32 32 33 33 32 31 29 28 29 28
4 1 3 3 2 2 1 3 3 0 1 1 2 1 1 2 3 4 6 5 5 5 5 5 4 5 5 6 6 6 5 6 6 5 5 5 4 4 3 4 5 6 6 5 4 5 7 9 11 13 15 17 18 19 20 21 19 18 18 21 24 26 26 26 25 25 27 29 30 30 33 35 35 34 34 33 31 30 30 30 31 30 28 27 27 25
3 1 2 2 3 2 3 5 4 1 1 1 1 2 2 3 4 3 2 3 4 4 3 3 4 5 5 5 6 7 6 6 7 6 5 4 4 4 4 5 6 7 6 5 5 7 9 10 11 13 15 16 17 19 22 23 21 20 22 23 24 27 28 26 24 24 26 30 32 32 33 34 35 35 35 34 32 30 28 26 28 28 26 25 25 25
1 1 0 3 3 1 1 2 0 3 5 5 3 3 2 2 4 3 3 4 5 5 5 5 4 4 6 6 6 7 7 6 6 7 7 5 4 4 5 7 9 10 9 7 8 10 11 11 12 13 14 14 15 19 22 23 21 21 22 24 26 30 32 30 28 27 28 30 32 34 35 36 36 35 35 34 34 33 28 25 26 26 24 23 24 24
0 1 0 4 4 1 3 6 5 4 1 4 5 4 4 3 4 5 4 4 5 4 5 5 5 4 5 7 7 8 8 6 6 7 7 5 5 7 8 10 11 10 10 9 9 11 13 12 12 13 15 15 17 20 22 22 21 21 22 24 26 29 31 31 30 28 28 29 31 32 35 36 36 35 34 33 34 33 29 25 24 23 22 23 22 21
2 4 3 4 4 5 7 7 6 5 4 6 6 4 5 3 5 6 4 4 4 4 5 6 5 4 4 5 7 9 8 7 9 10 7 5 7 10 11 13 12 9 9 10 9 9 10 10 10 12 14 16 18 20 21 20 20 20 20 22 24 27 29 30 29 26 25 26 28 29 32 34 33 32 32 31 31 31 31 29 26 23 22 22 22 22
Wind_Direction
99 86 257 233 220 191 193 200 205 193 157 154 133 139 189 178 223 206 157 184 149 139 218 192 226 261 258 267 171 85 62 118 143 150 154 162 157 168 171 164 164 159 156 151 157 170 174 174 176 176 180 181 178 181 183 183 187 191 193 193 191 187 185 185 188 192 195 197 200 206 212 218 221 225 218 205 202 204 202 201 200 201 200 199 203 205
72 161 242 239 224 214 208 198 199 182 164 174 144 152 194 187 235 299 119 172 156 137 240 177 215 255 256 270 300 102 124 169 205 177 162 170 167 171 168 165 167 156 148 149 153 170 174 174 175 175 179 180 178 181 185 188 190 192 194 195 193 189 189 189 191 195 199 201 203 207 213 219 222 218 208 203 203 203 201 200 202 202 199 198 202 205
22 245 251 250 235 244 270 226 199 201 190 189 148 148 185 179 184 350 69 159 154 74 282 194 201 251 267 276 282 187 167 207 229 217 187 168 168 174 170 168 172 164 157 166 170 175 175 175 175 175 179 182 182 182 186 191 193 195 195 196 197 194 191 192 194 197 200 204 208 211 216 219 217 210 205 204 201 198 200 201 203 203 201 200 203 206
332 246 248 252 228 229 281 276 271 276 238 182 157 137 159 167 157 251 177 154 121 69 162 177 193 270 283 280 275 230 188 201 223 239 243 177 174 176 171 172 175 176 174 176 184 183 176 175 175 176 180 184 184 183 187 192 194 198 198 196 198 197 194 194 197 200 203 206 210 214 218 214 210 208 206 208 205 204 205 205 208 209 208 207 206 207
242 248 258 320 189 187 248 281 282 267 257 213 175 147 152 179 179 153 139 129 55 11 123 102 38 299 257 235 259 266 160 238 215 217 234 237 210 172 162 176 182 182 180 178 186 185 176 177 178 178 181 184 183 184 190 194 195 198 199 197 198 198 197 197 200 205 206 203 200 202 201 197 198 200 202 205 206 207 209 211 214 214 215 214 211 211
253 253 244 319 233 188 214 247 224 167 139 261 220 200 186 177 157 112 119 115 56 320 228 121 74 296 276 223 234 227 178 232 227 204 209 215 220 179 163 179 190 189 185 181 186 183 176 178 180 180 182 184 185 187 191 195 197 198 199 198 198 201 201 204 208 208 204 197 193 191 184 180 183 187 194 203 206 207 209 213 217 218 221 221 217 215
254 249 179 214 212 182 195 222 209 140 114 178 237 212 176 142 130 129 135 128 113 233 233 151 146 279 307 264 236 211 197 221 228 220 219 209 207 199 176 179 187 191 189 187 189 182 175 176 179 181 184 185 186 188 191 195 198 199 199 197 199 202 201 204 207 201 198 197 195 191 186 185 188 190 196 206 210 211 210 213 219 223 223 222 222 220
241 274 124 187 174 167 182 231 228 125 110 226 231 149 144 136 140 150 150 145 166 146 14 107 133 26 294 282 281 215 195 227 236 227 227 217 208 211 197 184 185 189 189 187 186 182 178 178 181 183 186 188 187 187 189 193 197 200 199 196 199 201 198 197 198 195 197 202 201 197 195 194 197 202 205 207 212 215 213 216 223 224 221 221 222 221
251 254 206 194 169 194 205 212 194 122 112 244 162 128 148 150 150 155 149 126 57 65 10 278 162 87 269 280 337 45 190 242 242 227 222 214 208 212 211 193 187 189 189 186 183 181 181 182 184 186 186 187 187 185 186 189 193 197 198 197 199 201 200 199 199 198 200 207 209 206 203 202 203 208 211 209 212 216 216 220 224 223 222 222 220 220
266 241 203 168 156 209 227 217 181 135 127 228 115 96 81 107 127 127 116 89 51 46 260 238 186 157 277 284 353 48 248 253 244 235 221 209 206 207 213 205 189 187 188 189 185 180 182 184 186 186 186 186 186 185 185 186 189 193 195 195 197 201 203 203 204 204 204 210 216 214 210 208 206 209 212 211 214 218 220 222 223 225 226 223 220 219
275 269 200 156 173 195 202 196 169 153 148 112 89 81 60 45 49 52 48 71 61 334 265 233 190 160 305 285 261 183 213 227 237 249 221 201 205 204 208 211 194 187 185 186 185 182 183 185 185 184 184 184 185 185 185 185 188 191 192 194 196 201 205 205 205 207 209 214 218 218 216 214 210 211 214 214 215 218 220 223 225 226 224 220 221 224
323 315 233 252 205 145 114 106 33 27 103 102 84 90 82 27 14 28 1 32 80 256 271 253 181 145 248 260 245 236 234 225 221 229 212 199 205 204 204 208 201 191 185 182 181 181 180 181 183 183 184 184 182 183 184 185 188 191 192 194 196 200 204 205 205 209 214 217 218 219 219 217 214 215 216 217 218 219 220 224 227 226 223 222 223 229
336 272 270 308 283 108 94 129 342 6 38 80 84 85 87 41 16 23 306 336 209 246 279 271 153 149 248 242 241 257 260 254 232 228 223 206 203 201 199 202 201 194 188 183 178 179 179 178 181 183 184 184 182 183 184 186 188 190 193 195 197 201 203 204 206 213 217 216 216 218 217 216 216 218 219 220 222 222 223 226 228 227 227 228 228 232
333 302 306 334 300 82 103 132 235 348 30 89 114 113 109 117 116 208 254 275 245 251 270 252 184 215 280 259 258 276 285 276 249 245 245 225 211 205 198 195 197 196 192 187 180 178 181 182 182 184 184 184 185 186 185 186 188 190 193 196 198 201 203 203 208 215 218 215 213 215 214 214 216 219 221 223 225 226 227 229 230 231 232 232 234 235
114 319 291 190 253 315 110 156 171 148 100 97 147 133 128 147 151 182 207 191 218 240 269 271 213 187 217 249 268 283 302 297 275 274 262 242 222 203 192 190 193 196 195 191 185 182 185 185 183 184 185 185 187 188 187 188 189 190 193 196 199 202 202 204 209 214 217 215 213 212 213 215 216 219 223 225 228 230 230 231 232 233 234 234 238 241
121 258 265 247 206 146 136 190 149 112 77 330 112 95 106 173 144 137 178 173 171 202 278 275 223 202 205 250 290 323 337 334 341 349 1 351 203 164 176 191 193 198 199 194 190 187 187 188 186 185 186 187 189 190 190 190 190 191 194 196 200 202 202 205 209 214 216 216 214 213 214 216 217 221 227 229 232 233 232 231 232 233 235 237 242 245
76 293 295 333 4 100 169 166 95 93 130 358 50 101 221 171 118 115 188 62 72 107 269 269 249 299 327 298 323 359 359 349 353 355 10 17 48 138 175 193 193 201 203 199 196 191 188 188 188 188 188 188 190 191 192 193 194 194 196 198 200 202 204 206 209 213 216 217 217 216 216 218 219 224 229 230 232 232 228 228 232 235 237 238 241 244
127 353 310 348 21 314 196 93 57 49 125 119 128 191 197 64 80 98 125 6 37 138 275 317 247 285 359 276 317 1 360 343 344 346 353 9 33 97 201 206 200 203 203 204 201 196 192 189 190 191 190 190 191 193 194 195 196 198 199 200 201 202 204 207 209 212 214 217 219 220 220 220 222 226 229 229 230 228 225 227 231 234 236 238 239 242
117 86 303 293 181 292 3 67 50 10 52 116 161 161 104 92 356 38 103 153 55 193 283 323 304 249 189 225 289 340 329 316 323 339 355 3 14 16 342 260 227 217 207 212 206 198 193 189 192 194 193 194 194 194 196 196 197 199 201 203 203 205 208 209 210 211 213 216 218 221 222 223 223 225 227 227 225 224 225 227 230 233 237 239 240 241
95 108 280 297 313 340 5 49 106 352 24 55 64 48 59 125 156 142 124 157 155 166 248 311 335 269 224 216 199 228 264 280 293 314 329 325 338 355 20 27 289 254 244 247 220 208 204 197 196 193 193 196 197 197 197 196 197 199 201 203 205 207 209 209 210 211 212 215 217 219 222 224 224 224 226 227 224 225 227 229 231 234 238 241 243 243
56 95 183 300 337 23 30 207 179 172 127 82 53 30 4 70 118 152 78 93 131 140 179 208 299 268 253 208 173 211 243 245 251 270 278 272 284 307 335 101 251 264 259 279 313 41 333 273 231 208 197 194 195 199 199 196 198 201 202 203 204 206 208 208 209 210 211 213 214 217 220 223 224 224 225 228 227 228 230 232 234 236 238 242 245 245
101 95 125 285 358 50 244 253 201 177 164 148 156 179 168 126 123 129 7 308 124 127 166 161 215 266 261 193 179 204 218 232 244 246 264 272 271 281 279 157 186 196 197 239 63 84 71 329 315 309 278 220 197 197 201 200 199 201 202 204 205 206 207 208 209 210 211 212 213 215 218 222 223 223 225 227 229 231 232 234 236 236 237 241 245 246
132 100 92 184 285 236 265 282 210 157 142 120 129 155 146 129 118 127 189 237 116 91 144 123 169 270 266 208 191 200 210 239 257 244 270 291 293 294 313 27 358 242 201 165 152 156 171 190 216 264 290 280 245 207 201 202 202 203 203 204 205 205 208 210 211 212 212 212 213 215 216 219 222 223 224 226 228 231 233 236 237 237 237 240 243 244
85 84 77 335 307 311 309 325 10 60 79 82 60 117 134 147 129 142 174 166 131 158 138 85 268 270 279 260 207 198 221 266 278 240 253 285 311 318 322 24 51 325 290 176 167 179 176 185 196 193 207 245 264 249 216 205 203 204 205 205 205 206 209 210 211 212 213 213 214 215 215 217 220 221 223 224 227 230 233 236 238 238 238 239 242 243
102 101 93 67 6 353 354 344 342 352 51 97 247 225 156 118 99 106 112 83 101 198 151 124 235 255 279 308 314 269 213 264 276 249 232 262 301 321 318 357 73 29 308 275 200 189 176 181 192 184 191 212 228 246 255 238 218 209 206 207 208 208 209 210 210 211 212 213 213 214 214 216 217 220 222 223 226 229 232 235 238 239 238 239 241 242
124 140 119 110 136 173 179 218 257 262 211 207 244 226 195 129 119 134 121 79 70 216 149 149 218 262 292 306 297 283 217 199 256 260 238 247 273 292 305 337 36 46 316 297 275 232 201 196 191 181 190 204 209 210 219 245 255 237 218 210 210 211 210 210 210 210 211 212 212 213 214 215 216 218 221 223 225 229 231 234 237 240 240 241 244 244
90 115 127 135 163 182 185 210 220 173 146 246 239 228 213 157 123 116 109 131 187 170 179 216 205 258 295 274 261 272 255 208 223 237 233 236 266 289 307 342 16 27 320 301 299 289 267 241 218 197 193 198 206 208 206 209 228 251 247 226 214 213 212 210 209 209 210 211 211 213 215 215 217 218 220 223 225 228 231 233 236 239 242 244 246 244
94 96 171 148 178 202 190 208 210 156 186 209 198 225 221 183 136 125 145 192 161 125 248 250 188 184 268 255 240 255 250 222 215 223 226 216 225 275 319 345 6 10 341 330 323 307 293 273 258 236 215 205 202 205 210 210 209 222 250 249 229 218 214 212 210 208 209 211 211 213 216 216 218 218 220 223 226 229 232 234 235 237 240 243 245 242
106 145 192 154 202 233 217 234 219 171 215 214 197 224 213 178 174 181 186 186 153 146 230 233 171 187 241 249 241 241 232 222 223 220 205 160 137 356 356 355 1 360 346 348 345 321 300 288 280 271 259 240 218 205 203 210 211 210 223 242 242 229 218 213 211 210 209 210 211 213 216 217 217 218 221 223 225 228 232 235 236 236 237 240 241 240
108 160 186 143 181 254 255 260 226 182 210 251 248 245 205 182 194 199 186 173 167 182 224 191 178 211 232 228 240 250 238 225 219 100 72 56 36 21 11 2 360 351 339 343 350 338 313 304 301 286 273 260 240 220 200 201 210 212 213 218 230 234 224 214 211 211 210 211 213 215 216 216 217 218 220 223 225 227 231 235 236 236 235 236 238 241
89 174 181 107 81 296 287 252 188 154 137 224 292 299 200 183 198 202 146 158 171 239 262 135 175 242 252 220 235 280 323 323 53 69 67 56 61 56 26 360 351 342 336 340 353 352 323 307 308 303 290 257 241 232 211 202 204 210 215 213 213 222 225 217 212 211 212 213 214 215 215 215 216 218 220 222 224 227 230 233 235 235 234 234 236 241
103 138 46 81 92 271 293 340 355 56 79 45 326 333 82 162 184 201 189 182 174 166 116 93 164 251 258 223 243 311 334 340 21 70 84 88 124 121 111 306 308 322 331 335 347 353 335 313 305 301 292 273 251 236 221 209 202 202 211 215 213 214 218 217 214 211 212 214 215 215 215 215 216 217 219 221 224 226 229 233 235 235 234 234 237 241
121 132 146 104 114 246 282 338 357 25 40 4 306 284 163 152 149 132 116 176 167 149 141 154 221 236 218 153 192 290 309 325 352 84 136 170 182 171 186 200 212 256 267 278 315 326 320 303 298 297 294 285 266 246 234 225 211 205 207 213 215 211 209 211 214 213 211 212 214 214 214 215 216 218 219 221 223 226 230 232 233 233 234 236 238 240
126 132 165 139 130 230 274 344 27 32 2 252 249 224 185 164 140 128 131 267 274 200 170 185 221 222 159 147 170 241 271 278 275 218 189 174 169 173 197 204 198 207 223 276 317 310 299 294 294 294 293 287 274 258 250 243 231 219 213 214 216 213 209 207 212 217 214 210 212 214 214 215 217 219 221 221 222 225 228 230 232 233 236 236 232 227
139 132 152 124 124 192 299 32 52 252 241 246 281 285 161 145 132 121 111 283 296 325 284 176 215 207 138 115 116 174 232 239 240 233 206 177 174 176 183 217 230 221 330 333 315 294 287 287 288 289 286 282 275 265 257 252 243 232 223 218 216 217 216 210 211 218 218 212 210 212 213 214 216 219 220 220 221 223 225 227 228 227 225 218 209 204
146 146 142 118 127 151 86 83 140 244 252 351 2 6 96 106 108 99 50 308 278 224 203 231 265 286 68 67 67 192 235 265 301 269 230 198 180 162 161 222 264 265 259 286 290 289 289 285 281 283 285 282 278 272 264 258 253 243 232 223 213 211 215 214 213 215 216 214 213 212 213 214 215 216 217 216 216 216 214 211 206 199 192 186 182 182
146 148 138 135 154 138 132 161 237 283 333 66 3 267 170 143 148 133 127 280 276 215 174 203 246 279 32 63 40 353 5 13 348 307 271 226 149 135 159 197 229 222 220 260 270 275 286 284 276 277 281 280 276 273 270 265 260 252 241 229 215 209 211 215 216 215 214 215 216 214 212 213 213 212 211 209 207 200 189 180 174 173 175 173 164 161
132 156 157 159 179 109 103 113 326 340 229 230 246 259 242 175 173 147 118 288 281 244 179 182 192 206 209 108 6 16 37 22 332 299 305 344 48 64 91 125 138 195 254 277 277 281 286 280 275 280 285 284 279 275 273 272 266 257 246 233 221 214 212 212 214 213 211 211 211 209 208 212 219 214 204 199 193 180 166 160 160 165 170 169 159 154
85 86 110 118 132 113 110 129 170 187 230 240 237 259 278 146 143 105 63 316 270 223 174 175 188 194 198 200 182 106 67 9 283 273 297 351 68 65 65 80 72 35 352 329 286 276 279 279 282 289 291 292 289 284 281 280 274 261 248 235 224 219 217 213 209 207 207 207 206 205 203 200 208 216 206 188 169 154 146 142 144 153 161 160 155 149
70 57 74 104 143 156 132 138 199 212 234 237 232 250 253 140 112 79 33 273 249 208 177 176 192 203 195 183 156 125 140 227 244 251 253 115 98 87 94 89 63 42 36 29 285 261 274 285 298 301 297 297 297 295 293 288 277 261 248 237 225 219 219 218 212 204 202 202 202 202 199 192 191 195 192 175 152 138 136 140 142 146 147 143 141 138
55 51 87 123 146 152 137 141 236 251 237 229 234 251 248 124 90 100 215 234 215 192 187 180 193 204 180 165 169 180 203 207 192 191 171 127 107 97 97 90 72 55 49 343 285 288 297 310 318 314 310 311 312 312 308 293 270 255 245 234 223 217 216 217 213 202 195 194 191 189 190 192 191 182 172 169 161 145 147 160 162 153 142 135 132 131
83 58 81 129 142 150 138 125 160 271 241 206 200 220 118 117 154 207 220 210 175 179 188 191 202 199 174 178 192 188 184 175 149 139 132 123 119 114 95 83 71 38 344 305 311 325 333 336 337 337 336 336 334 331 327 306 269 252 238 223 214 211 208 206 204 197 189 185 178 168 166 175 182 173 162 166 166 151 146 154 156 149 140 133 128 124
173 142 171 184 155 124 78 86 107 241 230 184 156 132 95 162 199 209 193 172 180 178 176 192 207 190 177 194 195 153 137 130 123 121 120 120 117 111 105 106 119 247 303 347 354 354 358 356 353 356 360 360 356 353 354 352 306 237 217 205 199 197 194 191 189 184 174 170 165 158 154 155 159 157 151 153 156 149 139 138 140 137 133 129 124 118
194 151 187 226 186 129 126 172 197 214 210 172 146 166 208 201 189 167 145 156 205 185 171 193 211 198 186 183 158 136 135 131 131 127 116 114 114 114 127 142 157 193 358 10 9 12 18 14 7 12 19 19 16 14 20 31 54 91 129 162 174 177 176 172 167 160 151 147 147 146 144 142 141 141 141 143 145 141 134 130 129 128 126 124 120 115
226 193 176 193 194 160 171 213 229 231 223 184 166 193 204 188 161 153 147 153 194 191 171 179 198 204 187 149 127 132 143 145 147 137 122 123 122 121 127 122 92 58 34 25 22 26 33 33 29 30 31 30 29 31 37 49 64 73 82 115 140 150 153 149 146 142 135 132 133 133 131 129 128 130 131 132 133 131 128 127 125 124 122 121 117 114
242 209 159 151 199 185 186 239 240 222 354 237 187 218 189 158 156 160 150 154 189 188 170 174 189 189 166 139 129 139 154 153 146 135 129 128 123 121 119 89 67 60 53 40 31 37 49 50 47 44 39 34 33 37 46 56 65 68 77 99 115 122 126 127 127 125 122 120 120 121 122 120 119 121 122 122 123 124 125 127 126 124 123 121 117 114
285 228 114 87 85 135 195 305 307 216 186 152 121 63 42 135 154 165 165 174 184 175 175 184 171 146 142 144 142 145 154 153 142 134 131 131 131 132 117 93 78 73 71 61 53 62 65 58 52 49 44 38 36 43 53 60 65 74 88 101 109 115 116 115 115 115 116 115 114 115 116 116 115 115 115 116 116 117 120 124 125 123 122 120 118 116
303 359 101 88 82 131 230 284 304 348 18 17 122 167 170 145 138 141 154 153 137 130 137 142 130 130 142 150 145 145 151 153 148 143 139 139 144 143 124 112 102 89 83 85 87 80 73 67 63 58 50 44 45 54 64 69 71 80 93 100 106 110 107 101 100 103 106 110 112 111 111 112 113 113 113 114 114 114 115 120 122 122 123 124 124 123
250 325 171 118 89 63 242 246 241 57 22 345 305 259 249 191 140 104 72 94 109 107 101 93 95 128 148 153 150 144 146 156 154 144 142 146 146 142 132 119 108 98 90 87 89 87 81 74 68 62 56 55 59 66 71 75 76 82 90 97 103 105 102 98 96 96 97 102 106 109 111 112 113 114 116 118 118 118 120 125 127 127 128 129 125 122
209 296 72 105 111 181 214 199 179 139 133 254 250 256 273 244 144 117 106 120 128 134 130 110 81 81 126 149 156 146 144 157 155 142 144 154 151 146 138 127 116 106 98 94 96 96 89 77 66 65 66 68 71 72 73 75 78 82 88 94 100 103 103 101 99 96 97 102 106 110 114 115 116 119 120 120 119 120 121 124 126 126 124 121 118 114
183 191 173 139 163 218 224 202 173 143 166 213 221 229 247 224 140 131 153 170 160 159 154 138 116 101 113 141 157 153 149 151 150 145 142 145 149 147 143 138 131 118 113 118 116 101 86 72 66 71 77 77 75 73 71 70 74 79 85 93 100 102 103 103 101 98 98 103 108 113 116 117 119 121 119 117 117 117 115 112 110 108 108 109 111 111